Regional Weather Roundup
Issued by NWS Boston, MA

Current Version | Previous Version | Text Only | Print | Product List | Glossary On
Versions: 1 2 3 4 5 6 7 8 9 10 11 12 13 14 15 16 17 18 19 20 21 22 23 24 25 26 27 28
000
ASUS41 KBOX 261810
RWRBOX

REGIONAL WEATHER ROUNDUP
NATIONAL WEATHER SERVICE BOSTON/NORTON MA
200 PM EDT THU APR 26 2018

NOTE:  "FAIR" INDICATES FEW OR NO CLOUDS BELOW 12,000 FEET WITH NO
SIGNIFICANT WEATHER AND/OR OBSTRUCTIONS TO VISIBILITY.

MAZALL-261900-
EASTERN MASSACHUSETTS

CITY           SKY/WX    TMP DP  RH WIND       PRES   REMARKS
BOSTON         FAIR      65  49  56 W16       29.60R
6HR MIN TEMP:  52; 6HR MAX TEMP:  68; 6HR PCP: TRACE;

BEVERLY        PTSUNNY   67  51  56 W12G24    29.58R
LAWRENCE       PTSUNNY   68  48  48 W16G28    29.59R
BEDFORD        PTSUNNY   68  46  45 W12G21    29.59R
BLUE HILL        N/A     65  48  54 W21G31    29.60R
NORWOOD        FAIR      70  48  45 W18G29    29.60S
MARSHFIELD     FAIR      70  52  52 SW12G21   29.60R
PLYMOUTH       CLOUDY    67  53  61 W15G22    29.62R
TAUNTON        PTSUNNY   69  50  50 W10G22    29.62R
NEW BEDFORD    PTSUNNY   67  51  56 W14G26    29.62R
$$

MAZALL-261900-
CAPE COD AND THE ISLANDS

CITY           SKY/WX    TMP DP  RH WIND       PRES   REMARKS
FALMOUTH       FAIR      63  54  72 SW24G30   29.64
HYANNIS        FAIR      60  53  77 SW17      29.63R
CHATHAM        CLOUDY    53  52  96 SW9G18    29.65R
PROVINCETOWN   PTSUNNY   61  56  83 SW14      29.62R
NANTUCKET      FOG       50  50 100 SW14      29.69R VSB 1/4
MARTHAS VNYRD  PTSUNNY   62  52  69 SW15      29.66R
$$

MAZALL-261900-
CENTRAL AND WESTERN MASSACHUSETTS

CITY           SKY/WX    TMP DP  RH WIND       PRES   REMARKS
WORCESTER      FAIR      60  43  53 W17G29    29.63R
6HR MIN TEMP:  53; 6HR MAX TEMP:  61; 6HR PCP: TRACE;

FITCHBURG      FAIR      66  43  43 W17G26    29.63R
ORANGE         PTSUNNY   60  42  51 W15G25    29.66R
SPRINGFIELD    NOT AVBL
WESTFIELD      PTSUNNY   63  40  42 W15G22    29.67R
NORTH ADAMS    CLOUDY    53  41  63 W9G30     29.71R
PITTSFIELD     CLOUDY    52  40  63 W10G20    29.69R
$$

RIZALL-261900-
RHODE ISLAND

CITY           SKY/WX    TMP DP  RH WIND       PRES   REMARKS
PROVIDENCE     PTSUNNY   67  50  54 W16       29.64R
6HR MIN TEMP:  54; 6HR MAX TEMP:  68;

NEWPORT        PTSUNNY   64  53  67 SW9G17    29.64R
BLOCK ISLAND   FAIR      55  48  77 SW15      29.69R
SMITHFIELD     PTSUNNY   63  47  55 MISG      29.64R
WESTERLY       FAIR      61  46  57 SW17G29   29.68R
$$

CTZALL-261900-
CONNECTICUT

CITY           SKY/WX    TMP DP  RH WIND       PRES   REMARKS
BRADLEY INTL   PTSUNNY   65  41  41 W16G24    29.67S
6HR MIN TEMP:  55; 6HR MAX TEMP:  65;

HARTFORD       FAIR      65  43  44 W12G21    29.68R
BRIDGEPORT     FAIR      66  40  38 W15G29    29.70R
DANBURY        FAIR      61  42  49 W12G21    29.72R
GROTON         FAIR      60  47  61 SW16G24   29.67R
NEW HAVEN      FAIR      66  41  40 NW12G23   29.68R
CHESTER        PTSUNNY   64  46  52 NW9G15    29.68R
MERIDEN        FAIR      64  43  46 W12       29.68R
WILLIMANTIC    PTSUNNY   65  47  52 W9G21     29.67R
OXFORD         FAIR      61  42  49 W12G21    29.70R
$$

MEZ002-015-021-024-NHZ003-005-008-011-012-014-VTZ005-008-261900-
NORTHERN NEW ENGLAND

CITY           SKY/WX    TMP DP  RH WIND       PRES   REMARKS
PORTLAND ME    PTSUNNY   63  54  72 W10G17    29.53F
6HR MIN TEMP:  48; 6HR MAX TEMP:  63; 6HR PCP:  0.25;

BANGOR ME      CLOUDY    54  52  93 S8        29.51F
CONCORD NH     FAIR      65  41  41 SW21G26   29.58R
MANCHESTER NH  PTSUNNY   67  43  41 W8G22     29.58R
NASHUA NH      FAIR      65  42  43 W14G25    29.61R
PORTSMOUTH NH  NOT AVBL
JAFFREY NH     PTSUNNY   59  43  55 W12G20    29.64R
KEENE NH       PTSUNNY   61  44  53 W13G21    29.65R
BURLINGTON VT  PTSUNNY   57  44  62 NW12      29.61R
MT. WASHINGTON NOT AVBL
$$

NYZ052-076-261900-
EASTERN NEW YORK

CITY           SKY/WX    TMP DP  RH WIND       PRES   REMARKS
ALBANY         PTSUNNY   52  40  63 NW12      29.75R
6HR MIN TEMP:  50; 6HR MAX TEMP:  56;

NEW YORK CITY  FAIR      65  39  38 W17G33    29.73S
6HR MIN TEMP:  57; 6HR MAX TEMP:  65;

$$

ANZALL-261900-
MARINE OBSERVATIONS

STATION/POSITION TIME  TEMP    WIND        PRES    VSBY  WAVE
                       AIR SEA DIR/SP/G                  HT/PER
                 (UTC) (F)     (DEG/KT/KT) (MB)    (MI)  (FT/S)
BOSTON BUOY      1750   58 49  240/  6/  8 1002.1S         4/10
BUZZARDS BAY     1700   50     240/ 21/ 23 1004.2S
NANTUCKET SOUND  1650   47 46  230/ 16/ 17 1003.6          2/ 3
MASS BAY-STELLWA 1704   48 45              1000.4R         6/ 8
ISLE OF SHOALS   1800   57     190/ 10/ 11 1000.8F
S OF BLOCK IS    1743      44                N/A          10/11
$$

......................KEY.........................
  SKY/WX - SKY CONDITION/PRESENT WEATHER
  TMP    - TEMPERATURE IN FAHRENHEIT
  DWPT   - DEWPOINT IN FAHRENHEIT
  RH     - RELATIVE HUMIDITY IN PERCENT
  WIND   - DIRECTION AND SPEED IN MPH
  PRES   - MEAN SEA LEVEL PRESSURE IN INCHES OF HG
  WCI    - WIND CHILL INDEX
  VSB    - VISIBILITY IN MILES
  HX     - HEAT INDEX
  TC     - TEMPERATURE IN CELSIUS
  VRB    - VARIABLE WIND DIRECTION
  N/A    - NOT AVAILABLE




USA.gov is the U.S. government's official web portal to all federal, state and local government web resources and services.